"Pseudo-MPEC" for ZJ9FB08

Created 2018 May 19 18:18:14 UT using Find_Orb

Click here for an explanation of pseudo-MPECs

 
 Astrometry: 
     ZJ9FB08  C2018 05 13.18646 11 58 06.25 -02 23 05.6          20.6 GUNEOCPG96
     ZJ9FB08  C2018 05 13.19162 11 58 07.17 -02 23 34.5          21.3 GUNEOCPG96
     ZJ9FB08  C2018 05 13.19678 11 58 08.01 -02 24 02.8          21.5 GUNEOCPG96
     ZJ9FB08  C2018 05 13.20194 11 58 08.95 -02 24 32.7          20.4 GUNEOCPG96
     ZJ9FB08  C2018 05 13.26839 11 58 20.85 -02 30 46.6          21.2 GUNEOCPI52
     ZJ9FB08  C2018 05 13.27088 11 58 21.33 -02 31 00.4          20.7 GUNEOCPI52
     ZJ9FB08  C2018 05 13.27336 11 58 21.78 -02 31 14.2          21.3 GUNEOCPI52
     ZJ9FB08  C2018 05 13.27585 11 58 22.27 -02 31 28.3          20.7 GUNEOCPI52
     ZJ9FB08 KC2018 05 13.95922 12 00 34.89 -03 35 19.9                VNEOCPJ95
     ZJ9FB08 KC2018 05 13.97445 12 00 37.75 -03 36 45.7          21.4 GVNEOCPJ95
     ZJ9FB08  C2018 05 14.24917 12 01 30.93 -04 01 57.1          20.5 GUNEOCPI52
     ZJ9FB08  C2018 05 14.25248 12 01 31.53 -04 02 15.0          20.5 GUNEOCPI52
     ZJ9FB08  C2018 05 14.25579 12 01 32.10 -04 02 33.6          20.5 GUNEOCPI52
     ZJ9FB08  C2018 05 14.25911 12 01 32.72 -04 02 51.9          20.8 GUNEOCPI52
     ZJ9FB08 |C2018 05 17n0AstrometryCWnU%1eq#LOVeB`PW[(9rKSIo!-loqiLex+w=#i,807
     ZJ9FB08 |C2018 05 170/)JiY($;AvANy6O,\x$%KCWV@u3tt*M#/p67tRXJs,Ic5Vy34X8807
     ZJ9FB08 |C2018 05 17W5IR06O0eVgtMX1!0CL])O+S+s1D+Fm71]=`H(p5VwmAyWd%nmTn807
     ZJ9FB08  C2018 05 17.19411 12 11 06.46 -08 25 09.3          20.0 GUNEOCPI52
     ZJ9FB08  C2018 05 17.19576 12 11 06.84 -08 25 18.3          20.2 GUNEOCPI52
     ZJ9FB08  C2018 05 17.19742 12 11 07.13 -08 25 25.8          20.3 GUNEOCPI52
     ZJ9FB08  C2018 05 17e:Gqg2oLYcjy[*G=7redacted;tx^;Qp0dM3mX4dG3LZO6$(q.P4H01
     ZJ9FB08  C2018 05 17bAb:%$EO^/:eN'X`;B`bU3v^#gNbq%8%?q]?GAN;,VB?=]aWqDv/H01
     ZJ9FB08  C2018 05 17GwvO_Gld9K^1bW2]_Miob3,Jj,u5)^65seef?\2^v7vay-s\lF%bH01
     ZJ9FB08  C2018 05 17ohu!lf.A!k%7K:WjQi(MZX4Yea;X-A@VcWU\ev7V!([p`LG).tdgH01
     ZJ9FB08 KC2018 05 17bCRI9d04+fw!wR7=(NM]V/Sp[CN0jacmT'#h2CegAq$^yRe]ct6YL01
     ZJ9FB08 KC2018 05 17/kYSswcd9Wm.56tX!SM@kLMWc6QToaE):ZW\M8:uO1taf6oNEOCPL01
     ZJ9FB08  C2018 05 18.19229 12 14 22.92 -09 50 19.6          20.6 GUNEOCPI52
     ZJ9FB08  C2018 05 18.19394 12 14 23.17 -09 50 28.1          20.1 GUNEOCPI52
     ZJ9FB08  C2018 05 18.19560 12 14 23.49 -09 50 36.3          20.7 GUNEOCPI52
     ZJ9FB08  C2018 05 18.19726 12 14 23.84 -09 50 44.3          20.1 GUNEOCPI52
     ZJ9FB08  C2018 05 19.16330 12 17 34.92 -11 11 03.7          21.3 GUNEOCPI52
     ZJ9FB08  C2018 05 19.16495 12 17 35.24 -11 11 11.8          21.0 GUNEOCPI52
     ZJ9FB08  C2018 05 19.16661 12 17 35.55 -11 11 20.4          21.1 GUNEOCPI52
     ZJ9FB08  C2018 05 19.16826 12 17 35.83 -11 11 27.9          21.0 GUNEOCPI52

Station data:
(807) Cerro Tololo Observatory, La Serena  (S30.169136 W70.805900)  Chile.
   Observers M. Holman, J. Kavelaars, T. Grav, W. Fraser. Measurer M. Holman.
   4-m Blanco reflector + CCD.
(G96) Mt. Lemmon Survey  (N32.442754 W110.788720)  US/Arizona.  Observers E.
   J. Christensen, A. R. Gibbs, A. D. Grauer, R. E. Hill, J. A. Johnson, R.
   A. Kowalski, S. M. Larson, F. C. Shelly. 1.5-m reflector + CCD.
(H01) Magdalena Ridge Observatory, Socorro  (N33.985151 W107.189200)  US/New
   Mexico.  Observers W. H. Ryan, E. V. Ryan. Measurer W. H. Ryan. 2.4-m
   f/8.9 reflector + CCD.
(I52) Steward Observatory, Mt. Lemmon Station  (N32.442547 W110.788920)
   US/Arizona.
(J95) Great Shefford  (N51.474970 W1.447000)  UK.  Observer P. Birtwhistle.
   0.40-m f/6.0 Schmidt-Cassegrain + CCD.
(L01) Višnjan Observatory, Tičan  (N45.290900 E13.749300)  Croatia.

Orbital elements:  ZJ9FB08
   Perihelion 2018 Apr 20.098850 +/- 0.045 TT =  2:22:20 (JD 2458228.598850)
Epoch 2018 May 19.0 TT = JDT 2458257.5   Earth MOID: 0.1248   AutoNEOCP
M   8.26931 +/- 0.11                (J2000 ecliptic)
n   0.28612394 +/- 0.00363          Peri.  158.76235 +/- 0.039
a   2.28086675 +/- 0.0193           Node    42.14803 +/- 0.036
e   0.5103512 +/- 0.00384           Incl.   12.00277 +/- 0.050
P   3.44                   H 22.5   G  0.15   U  9.0  
q 1.11682366 +/- 0.000683    Q 3.44490984 +/- 0.0383
From 34 observations 2018 May 13-19; mean residual 0".43
Residuals in arcseconds: 
180513 G96  .58+  .04+    180514 I52  .39-  .68+    180517 L01  .15+  1.1+    
180513 G96  .61+  .21+    180514 I52  .13-  .70+    180517 L01  .16+  .85+    
180513 G96  .56-  .96+    180517 807  .17-  .12-    180518 I52  .42+  .23-    
180513 G96  .25-  .12+    180517 807  .17-  .13-    180518 I52  .34-  .41-    
180513 I52  .48-  .02+    180517 807  .01+  .03-    180518 I52  .10-  .23-    
180513 I52  .04-  .21+    180517 I52  .95-  .24-    180518 I52  .59+  .15+    
180513 I52  .03-  .35+    180517 I52  .24+  .69-    180519 I52  .31-  .29-    
180513 I52  .55+  .24+    180517 I52  .06+  .40+    180519 I52  .06-  .27-    
180513 J95  .33-  .33+    180517 H01  .31+  .07-    180519 I52  .03+  .70-    
180513 J95  .33+  .93-    180517 H01  .26+  .06-    180519 I52  .30-  .08-    
180514 I52  .04+  .64+    180517 H01  .09+  .01-    
180514 I52  .05+  1.0+    180517 H01  .08+  .15+    

Ephemerides (geocentric):
Date (UTC) HH   RA              Dec         delta   r     elong  mag " sig PA
---- -- -- --  ------------   ------------  ------ ------ -----  --- ---- ---
2018 05 19 18  12 19 31.017   -11 58 19.97  .22288 1.1681 130.2 21.2  .38  40
2018 05 19 19  12 19 39.268   -12 01 41.54  .22303 1.1682 130.2 21.2  .39  40
2018 05 19 20  12 19 47.519   -12 05 02.87  .22317 1.1683 130.2 21.2  .39  40
2018 05 19 21  12 19 55.772   -12 08 23.96  .22332 1.1685 130.2 21.2  .40  40
2018 05 19 22  12 20 04.025   -12 11 44.80  .22347 1.1686 130.2 21.2  .41  40
2018 05 19 23  12 20 12.280   -12 15 05.40  .22361 1.1688 130.2 21.2  .42  41
2018 05 20 00  12 20 20.535   -12 18 25.76  .22376 1.1689 130.2 21.2  .43  41
2018 05 20 01  12 20 28.791   -12 21 45.87  .22391 1.1690 130.2 21.2  .43  41
2018 05 20 02  12 20 37.049   -12 25 05.74  .22406 1.1692 130.3 21.2  .44  41
2018 05 20 03  12 20 45.307   -12 28 25.36  .22420 1.1693 130.3 21.2  .45  41
2018 05 20 04  12 20 53.566   -12 31 44.74  .22435 1.1695 130.3 21.2  .46  42
2018 05 20 05  12 21 01.826   -12 35 03.87  .22450 1.1696 130.3 21.2  .47  42
2018 05 20 06  12 21 10.087   -12 38 22.76  .22465 1.1697 130.3 21.2  .48  42
2018 05 20 07  12 21 18.349   -12 41 41.40  .22480 1.1699 130.3 21.2  .49  42
2018 05 20 08  12 21 26.612   -12 44 59.79  .22495 1.1700 130.3 21.2  .50  42
2018 05 20 09  12 21 34.875   -12 48 17.94  .22510 1.1702 130.3 21.2  .50  42
2018 05 20 10  12 21 43.140   -12 51 35.84  .22525 1.1703 130.3 21.2  .51  43
2018 05 20 11  12 21 51.405   -12 54 53.50  .22540 1.1705 130.3 21.2  .52  43
2018 05 20 12  12 21 59.672   -12 58 10.91  .22555 1.1706 130.3 21.2  .53  43
2018 05 20 13  12 22 07.939   -13 01 28.07  .22570 1.1707 130.3 21.2  .54  43
2018 05 20 14  12 22 16.207   -13 04 44.99  .22586 1.1709 130.3 21.2  .55  43
2018 05 20 15  12 22 24.476   -13 08 01.65  .22601 1.1710 130.4 21.2  .56  43
2018 05 20 16  12 22 32.746   -13 11 18.07  .22616 1.1712 130.4 21.2  .57  44
2018 05 20 17  12 22 41.017   -13 14 34.25  .22631 1.1713 130.4 21.2  .58  44
2018 05 20 18  12 22 49.288   -13 17 50.17  .22647 1.1714 130.4 21.2  .59  44
2018 05 20 19  12 22 57.561   -13 21 05.85  .22662 1.1716 130.4 21.2  .60  44
2018 05 20 20  12 23 05.834   -13 24 21.27  .22677 1.1717 130.4 21.2  .61  44
2018 05 20 21  12 23 14.108   -13 27 36.45  .22693 1.1719 130.4 21.2  .62  44
2018 05 20 22  12 23 22.383   -13 30 51.38  .22708 1.1720 130.4 21.2  .63  44
2018 05 20 23  12 23 30.658   -13 34 06.07  .22724 1.1722 130.4 21.2  .64  45
2018 05 21 00  12 23 38.935   -13 37 20.50  .22739 1.1723 130.4 21.2  .65  45
2018 05 21 01  12 23 47.212   -13 40 34.68  .22755 1.1725 130.4 21.2  .66  45
2018 05 21 02  12 23 55.490   -13 43 48.62  .22770 1.1726 130.4 21.2  .67  45
2018 05 21 03  12 24 03.769   -13 47 02.30  .22786 1.1727 130.4 21.2  .68  45
2018 05 21 04  12 24 12.049   -13 50 15.74  .22801 1.1729 130.4 21.2  .69  45
2018 05 21 05  12 24 20.330   -13 53 28.92  .22817 1.1730 130.5 21.2  .70  45
2018 05 21 06  12 24 28.611   -13 56 41.86  .22833 1.1732 130.5 21.2  .71  45
2018 05 21 07  12 24 36.893   -13 59 54.54  .22848 1.1733 130.5 21.2  .72  46
2018 05 21 08  12 24 45.176   -14 03 06.98  .22864 1.1735 130.5 21.2  .73  46
2018 05 21 09  12 24 53.460   -14 06 19.16  .22880 1.1736 130.5 21.2  .75  46
2018 05 21 10  12 25 01.744   -14 09 31.10  .22896 1.1738 130.5 21.2  .76  46
2018 05 21 11  12 25 10.029   -14 12 42.78  .22912 1.1739 130.5 21.2  .77  46
2018 05 21 12  12 25 18.315   -14 15 54.21  .22927 1.1740 130.5 21.2  .78  46
2018 05 21 13  12 25 26.602   -14 19 05.39  .22943 1.1742 130.5 21.2  .79  46
2018 05 21 14  12 25 34.889   -14 22 16.32  .22959 1.1743 130.5 21.2  .80  46
2018 05 21 15  12 25 43.177   -14 25 27.00  .22975 1.1745 130.5 21.2  .81  46
2018 05 21 16  12 25 51.466   -14 28 37.43  .22991 1.1746 130.5 21.2  .82  47
2018 05 21 17  12 25 59.756   -14 31 47.61  .23007 1.1748 130.5 21.2  .84  47